Time,TemperatureF,DewpointF,PressureIn,WindDirection,WindDirectionDegrees,WindSpeedMPH,WindSpeedGustMPH,Humidity,HourlyPrecipIn,Conditions,Clouds,dailyrainin,SoftwareType,DateUTC
2013-02-02 00:00:00,18.9,5.8,30.43,West,266,3.0,4.0,56,0.00,,,0.00,Wunderground v.1.15,2013-02-02 05:00:00,
2013-02-02 00:01:00,18.9,5.8,30.43,WNW,284,2.0,4.0,56,0.00,,,0.00,Wunderground v.1.15,2013-02-02 05:01:00,
2013-02-02 00:02:00,18.9,5.8,30.43,West,269,3.0,4.0,56,0.00,,,0.00,Wunderground v.1.15,2013-02-02 05:02:00,
2013-02-02 00:07:00,18.8,6.1,30.43,West,260,5.0,5.0,57,0.00,,,0.00,Wunderground v.1.15,2013-02-02 05:07:00,
2013-02-02 00:13:00,18.8,6.1,30.43,West,276,8.0,8.0,57,0.00,,,0.00,Wunderground v.1.15,2013-02-02 05:13:00,
2013-02-02 00:19:00,18.9,6.2,30.43,West,262,9.0,11.0,57,0.00,,,0.00,Wunderground v.1.15,2013-02-02 05:19:00,
2013-02-02 00:25:00,18.9,5.8,30.43,West,279,9.0,14.0,56,0.00,,,0.00,Wunderground v.1.15,2013-02-02 05:25:00,
2013-02-02 00:30:00,18.9,6.2,30.42,West,273,8.0,8.0,57,0.00,,,0.00,Wunderground v.1.15,2013-02-02 05:30:00,
2013-02-02 00:35:00,18.9,6.2,30.42,West,269,9.0,10.0,57,0.00,,,0.00,Wunderground v.1.15,2013-02-02 05:35:00,
2013-02-02 00:40:00,18.9,6.2,30.42,WNW,288,10.0,10.0,57,0.00,,,0.00,Wunderground v.1.15,2013-02-02 05:40:00,
2013-02-02 00:46:00,18.9,6.2,30.42,West,271,8.0,12.0,57,0.00,,,0.00,Wunderground v.1.15,2013-02-02 05:46:00,
2013-02-02 00:52:00,18.8,6.1,30.42,West,279,4.0,9.0,57,0.00,,,0.00,Wunderground v.1.15,2013-02-02 05:52:00,
2013-02-02 00:58:00,18.6,6.3,30.42,WNW,286,4.0,9.0,58,0.00,,,0.00,Wunderground v.1.15,2013-02-02 05:58:00,
2013-02-02 01:04:00,18.4,6.1,30.43,WSW,257,3.0,5.0,58,0.00,,,0.00,Wunderground v.1.15,2013-02-02 06:04:00,
2013-02-02 01:10:00,18.2,5.9,30.43,WNW,285,3.0,5.0,58,0.00,,,0.00,Wunderground v.1.15,2013-02-02 06:10:00,
2013-02-02 01:16:00,18.2,6.3,30.42,West,280,4.0,4.0,59,0.00,,,0.00,Wunderground v.1.15,2013-02-02 06:16:00,
2013-02-02 01:22:00,18.3,6.4,30.42,West,273,3.0,10.0,59,0.00,,,0.00,Wunderground v.1.15,2013-02-02 06:22:00,
2013-02-02 01:27:00,18.3,6.4,30.42,NW,304,5.0,10.0,59,0.00,,,0.00,Wunderground v.1.15,2013-02-02 06:27:00,
2013-02-02 01:33:00,18.3,6.4,30.43,West,272,4.0,4.0,59,0.00,,,0.00,Wunderground v.1.15,2013-02-02 06:33:00,
2013-02-02 01:39:00,18.1,6.2,30.42,West,277,2.0,5.0,59,0.00,,,0.00,Wunderground v.1.15,2013-02-02 06:39:00,
2013-02-02 01:44:00,18.0,6.4,30.43,WNW,297,2.0,3.0,60,0.00,,,0.00,Wunderground v.1.15,2013-02-02 06:44:00,
2013-02-02 01:49:00,17.9,6.7,30.42,West,269,6.0,6.0,61,0.00,,,0.00,Wunderground v.1.15,2013-02-02 06:49:00,
2013-02-02 01:54:00,18.0,7.2,30.41,West,280,5.0,9.0,62,0.00,,,0.00,Wunderground v.1.15,2013-02-02 06:54:00,
2013-02-02 01:59:00,18.0,6.8,30.41,NW,306,5.0,9.0,61,0.00,,,0.00,Wunderground v.1.15,2013-02-02 06:59:00,
2013-02-02 02:04:00,18.0,6.8,30.41,West,277,4.0,9.0,61,0.00,,,0.00,Wunderground v.1.15,2013-02-02 07:04:00,
2013-02-02 02:09:00,18.0,6.8,30.41,West,277,4.0,9.0,61,0.00,,,0.00,Wunderground v.1.15,2013-02-02 07:09:00,
2013-02-02 02:14:00,17.9,6.3,30.41,West,262,3.0,6.0,60,0.00,,,0.00,Wunderground v.1.15,2013-02-02 07:14:00,
2013-02-02 02:19:00,17.9,6.3,30.41,West,272,5.0,7.0,60,0.00,,,0.00,Wunderground v.1.15,2013-02-02 07:19:00,
2013-02-02 02:24:00,17.7,6.5,30.41,West,269,4.0,4.0,61,0.00,,,0.00,Wunderground v.1.15,2013-02-02 07:24:00,
2013-02-02 02:29:00,17.6,6.8,30.41,West,273,2.0,5.0,62,0.00,,,0.00,Wunderground v.1.15,2013-02-02 07:29:00,
2013-02-02 02:34:00,17.6,6.8,30.41,West,271,1.0,6.0,62,0.00,,,0.00,Wunderground v.1.15,2013-02-02 07:34:00,
2013-02-02 02:39:00,17.6,6.4,30.41,West,269,3.0,6.0,61,0.00,,,0.00,Wunderground v.1.15,2013-02-02 07:39:00,
2013-02-02 02:44:00,17.5,6.3,30.41,West,269,1.0,3.0,61,0.00,,,0.00,Wunderground v.1.15,2013-02-02 07:44:00,
2013-02-02 02:49:00,17.4,6.6,30.41,West,269,3.0,3.0,62,0.00,,,0.00,Wunderground v.1.15,2013-02-02 07:49:00,
2013-02-02 02:54:00,17.4,6.9,30.40,West,267,2.0,4.0,63,0.00,,,0.00,Wunderground v.1.15,2013-02-02 07:54:00,
2013-02-02 02:59:00,17.3,6.8,30.40,West,271,4.0,5.0,63,0.00,,,0.00,Wunderground v.1.15,2013-02-02 07:59:00,
2013-02-02 03:05:00,17.2,6.8,30.40,West,271,3.0,3.0,63,0.00,,,0.00,Wunderground v.1.15,2013-02-02 08:05:00,
2013-02-02 03:10:00,17.2,6.8,30.40,West,271,4.0,4.0,63,0.00,,,0.00,Wunderground v.1.15,2013-02-02 08:10:00,
2013-02-02 03:15:00,17.2,6.8,30.40,West,275,2.0,5.0,63,0.00,,,0.00,Wunderground v.1.15,2013-02-02 08:15:00,
2013-02-02 03:21:00,17.2,7.1,30.40,West,269,3.0,5.0,64,0.00,,,0.00,Wunderground v.1.15,2013-02-02 08:21:00,
2013-02-02 03:26:00,17.2,7.1,30.40,West,263,3.0,5.0,64,0.00,,,0.00,Wunderground v.1.15,2013-02-02 08:26:00,
2013-02-02 03:31:00,17.3,7.2,30.40,West,273,1.0,6.0,64,0.00,,,0.00,Wunderground v.1.15,2013-02-02 08:31:00,
2013-02-02 03:36:00,17.4,6.9,30.40,West,269,2.0,6.0,63,0.00,,,0.00,Wunderground v.1.15,2013-02-02 08:36:00,
2013-02-02 03:41:00,17.4,6.6,30.40,West,267,2.0,3.0,62,0.00,,,0.00,Wunderground v.1.15,2013-02-02 08:41:00,
2013-02-02 03:46:00,17.4,6.6,30.40,West,267,2.0,4.0,62,0.00,,,0.00,Wunderground v.1.15,2013-02-02 08:46:00,
2013-02-02 03:51:00,17.3,6.8,30.40,West,269,3.0,3.0,63,0.00,,,0.00,Wunderground v.1.15,2013-02-02 08:51:00,
2013-02-02 03:56:00,17.2,7.1,30.40,West,269,2.0,4.0,64,0.00,,,0.00,Wunderground v.1.15,2013-02-02 08:56:00,
2013-02-02 04:01:00,17.2,7.4,30.40,West,270,3.0,4.0,65,0.00,,,0.00,Wunderground v.1.15,2013-02-02 09:01:00,
2013-02-02 04:06:00,17.1,7.3,30.39,West,273,2.0,4.0,65,0.00,,,0.00,Wunderground v.1.15,2013-02-02 09:06:00,
2013-02-02 04:11:00,17.1,7.3,30.39,West,275,4.0,4.0,65,0.00,,,0.00,Wunderground v.1.15,2013-02-02 09:11:00,
2013-02-02 04:16:00,17.1,7.7,30.39,West,278,2.0,5.0,66,0.00,,,0.00,Wunderground v.1.15,2013-02-02 09:16:00,
2013-02-02 04:21:00,17.1,7.3,30.39,West,270,3.0,3.0,65,0.00,,,0.00,Wunderground v.1.15,2013-02-02 09:21:00,
2013-02-02 04:27:00,17.0,7.3,30.39,West,270,0.0,3.0,65,0.00,,,0.00,Wunderground v.1.15,2013-02-02 09:27:00,
2013-02-02 04:32:00,16.9,7.2,30.39,West,270,3.0,3.0,65,0.00,,,0.00,Wunderground v.1.15,2013-02-02 09:32:00,
2013-02-02 04:37:00,16.8,7.4,30.39,West,270,2.0,3.0,66,0.00,,,0.00,Wunderground v.1.15,2013-02-02 09:37:00,
2013-02-02 04:42:00,16.8,7.4,30.39,West,270,1.0,2.0,66,0.00,,,0.00,Wunderground v.1.15,2013-02-02 09:42:00,
2013-02-02 04:47:00,16.9,7.2,30.39,West,270,0.0,2.0,65,0.00,,,0.00,Wunderground v.1.15,2013-02-02 09:47:00,
2013-02-02 04:52:00,16.8,7.4,30.39,West,270,2.0,2.0,66,0.00,,,0.00,Wunderground v.1.15,2013-02-02 09:52:00,
2013-02-02 04:57:00,16.8,7.7,30.39,West,270,1.0,3.0,67,0.00,,,0.00,Wunderground v.1.15,2013-02-02 09:57:00,
2013-02-02 05:02:00,16.8,7.4,30.40,West,270,0.0,1.0,66,0.00,,,0.00,Wunderground v.1.15,2013-02-02 10:02:00,
2013-02-02 05:07:00,16.8,7.1,30.40,West,270,1.0,2.0,65,0.00,,,0.00,Wunderground v.1.15,2013-02-02 10:07:00,
2013-02-02 05:12:00,16.8,7.4,30.40,West,270,0.0,2.0,66,0.00,,,0.00,Wunderground v.1.15,2013-02-02 10:12:00,
2013-02-02 05:17:00,16.7,7.6,30.40,West,270,0.0,2.0,67,0.00,,,0.00,Wunderground v.1.15,2013-02-02 10:17:00,
2013-02-02 05:22:00,16.7,7.6,30.39,West,270,0.0,1.0,67,0.00,,,0.00,Wunderground v.1.15,2013-02-02 10:22:00,
2013-02-02 05:27:00,16.7,7.6,30.39,West,270,0.0,1.0,67,0.00,,,0.00,Wunderground v.1.15,2013-02-02 10:27:00,
2013-02-02 05:32:00,16.8,7.7,30.39,West,270,0.0,1.0,67,0.00,,,0.00,Wunderground v.1.15,2013-02-02 10:32:00,
2013-02-02 05:37:00,16.8,7.7,30.39,West,270,1.0,2.0,67,0.00,,,0.00,Wunderground v.1.15,2013-02-02 10:37:00,
2013-02-02 05:42:00,16.8,8.1,30.39,West,270,0.0,1.0,68,0.00,,,0.00,Wunderground v.1.15,2013-02-02 10:42:00,
2013-02-02 05:47:00,16.8,8.1,30.39,West,270,1.0,1.0,68,0.00,,,0.00,Wunderground v.1.15,2013-02-02 10:47:00,
2013-02-02 05:52:00,16.5,7.8,30.39,West,270,0.0,0.0,68,0.00,,,0.00,Wunderground v.1.15,2013-02-02 10:52:00,
2013-02-02 05:57:00,16.4,7.3,30.39,West,270,0.0,0.0,67,0.00,,,0.00,Wunderground v.1.15,2013-02-02 10:57:00,
2013-02-02 06:02:00,16.4,7.0,30.39,West,270,0.0,0.0,66,0.00,,,0.00,Wunderground v.1.15,2013-02-02 11:02:00,
2013-02-02 06:07:00,16.4,7.3,30.39,West,270,0.0,0.0,67,0.00,,,0.00,Wunderground v.1.15,2013-02-02 11:07:00,
2013-02-02 06:12:00,16.6,7.5,30.39,West,270,0.0,0.0,67,0.00,,,0.00,Wunderground v.1.15,2013-02-02 11:12:00,
2013-02-02 06:17:00,16.6,7.5,30.39,West,270,0.0,0.0,67,0.00,,,0.00,Wunderground v.1.15,2013-02-02 11:17:00,
2013-02-02 06:22:00,16.6,7.5,30.39,West,270,0.0,0.0,67,0.00,,,0.00,Wunderground v.1.15,2013-02-02 11:22:00,
2013-02-02 06:27:00,16.7,8.3,30.39,West,270,0.0,1.0,69,0.00,,,0.00,Wunderground v.1.15,2013-02-02 11:27:00,
2013-02-02 06:32:00,16.8,8.4,30.39,West,270,0.0,0.0,69,0.00,,,0.00,Wunderground v.1.15,2013-02-02 11:32:00,
2013-02-02 06:37:00,16.8,8.1,30.38,West,270,1.0,1.0,68,0.00,,,0.00,Wunderground v.1.15,2013-02-02 11:37:00,
2013-02-02 06:42:00,16.8,8.1,30.39,West,270,1.0,2.0,68,0.00,,,0.00,Wunderground v.1.15,2013-02-02 11:42:00,
2013-02-02 06:47:00,16.8,8.1,30.39,West,270,1.0,2.0,68,0.00,,,0.00,Wunderground v.1.15,2013-02-02 11:47:00,
2013-02-02 06:52:00,16.9,8.2,30.39,West,270,0.0,1.0,68,0.00,,,0.00,Wunderground v.1.15,2013-02-02 11:52:00,
2013-02-02 06:57:00,16.8,8.4,30.39,West,270,0.0,1.0,69,0.00,,,0.00,Wunderground v.1.15,2013-02-02 11:57:00,
2013-02-02 07:02:00,16.7,8.3,30.39,West,270,0.0,0.0,69,0.00,,,0.00,Wunderground v.1.15,2013-02-02 12:02:00,
2013-02-02 07:07:00,16.6,8.2,30.39,West,270,0.0,0.0,69,0.00,,,0.00,Wunderground v.1.15,2013-02-02 12:07:00,
2013-02-02 07:12:00,16.4,8.3,30.39,West,270,0.0,0.0,70,0.00,,,0.00,Wunderground v.1.15,2013-02-02 12:12:00,
2013-02-02 07:17:00,16.3,8.2,30.39,West,270,0.0,0.0,70,0.00,,,0.00,Wunderground v.1.15,2013-02-02 12:17:00,
2013-02-02 07:22:00,16.4,8.3,30.39,West,270,1.0,1.0,70,0.00,,,0.00,Wunderground v.1.15,2013-02-02 12:22:00,
2013-02-02 07:27:00,16.7,8.9,30.39,West,270,0.0,1.0,71,0.00,,,0.00,Wunderground v.1.15,2013-02-02 12:27:00,
2013-02-02 07:32:00,16.7,8.9,30.40,West,270,0.0,1.0,71,0.00,,,0.00,Wunderground v.1.15,2013-02-02 12:32:00,
2013-02-02 07:37:00,16.7,9.2,30.39,West,270,2.0,2.0,72,0.00,,,0.00,Wunderground v.1.15,2013-02-02 12:37:00,
2013-02-02 07:42:00,16.8,9.3,30.39,West,270,0.0,1.0,72,0.00,,,0.00,Wunderground v.1.15,2013-02-02 12:42:00,
2013-02-02 07:47:00,16.9,9.7,30.39,West,270,0.0,1.0,73,0.00,,,0.00,Wunderground v.1.15,2013-02-02 12:47:00,
2013-02-02 07:53:00,16.9,9.7,30.40,West,270,0.0,0.0,73,0.00,,,0.00,Wunderground v.1.15,2013-02-02 12:53:00,
2013-02-02 07:58:00,17.1,9.9,30.40,West,270,1.0,1.0,73,0.00,,,0.00,Wunderground v.1.15,2013-02-02 12:58:00,
2013-02-02 08:03:00,17.5,10.0,30.39,West,270,1.0,2.0,72,0.00,,,0.00,Wunderground v.1.15,2013-02-02 13:03:00,
2013-02-02 08:08:00,17.9,10.1,30.39,West,270,2.0,2.0,71,0.00,,,0.00,Wunderground v.1.15,2013-02-02 13:08:00,
2013-02-02 08:13:00,18.3,10.1,30.39,West,270,2.0,3.0,70,0.00,,,0.00,Wunderground v.1.15,2013-02-02 13:13:00,
2013-02-02 08:18:00,18.8,10.6,30.39,West,270,1.0,3.0,70,0.00,,,0.00,Wunderground v.1.15,2013-02-02 13:18:00,
2013-02-02 08:23:00,19.1,10.3,30.39,West,270,1.0,2.0,68,0.00,,,0.00,Wunderground v.1.15,2013-02-02 13:23:00,
2013-02-02 08:28:00,19.6,10.1,30.39,WSW,255,2.0,2.0,66,0.00,,,0.00,Wunderground v.1.15,2013-02-02 13:28:00,
2013-02-02 08:33:00,20.1,9.5,30.38,WSW,250,1.0,3.0,63,0.00,,,0.00,Wunderground v.1.15,2013-02-02 13:33:00,
2013-02-02 08:38:00,20.4,8.7,30.38,WSW,250,2.0,3.0,60,0.00,,,0.00,Wunderground v.1.15,2013-02-02 13:38:00,
2013-02-02 08:43:00,20.9,9.2,30.38,SW,231,2.0,3.0,60,0.00,,,0.00,Wunderground v.1.15,2013-02-02 13:43:00,
2013-02-02 08:48:00,21.0,8.9,30.38,SW,215,2.0,3.0,59,0.00,,,0.00,Wunderground v.1.15,2013-02-02 13:48:00,
2013-02-02 08:53:00,21.2,8.7,30.37,South,188,1.0,4.0,58,0.00,,,0.00,Wunderground v.1.15,2013-02-02 13:53:00,
2013-02-02 08:58:00,21.5,9.0,30.37,South,176,0.0,4.0,58,0.00,,,0.00,Wunderground v.1.15,2013-02-02 13:58:00,
2013-02-02 09:04:00,21.9,9.0,30.37,SSW,204,4.0,4.0,57,0.00,,,0.00,Wunderground v.1.15,2013-02-02 14:04:00,
2013-02-02 09:09:00,22.5,8.7,30.37,South,181,5.0,7.0,55,0.00,,,0.00,Wunderground v.1.15,2013-02-02 14:09:00,
2013-02-02 09:14:00,22.8,8.6,30.37,SSE,167,2.0,5.0,54,0.00,,,0.00,Wunderground v.1.15,2013-02-02 14:14:00,
2013-02-02 09:19:00,23.0,8.8,30.37,SSE,165,2.0,5.0,54,0.00,,,0.00,Wunderground v.1.15,2013-02-02 14:19:00,
2013-02-02 09:24:00,23.5,9.3,30.37,South,188,5.0,6.0,54,0.00,,,0.00,Wunderground v.1.15,2013-02-02 14:24:00,
2013-02-02 09:29:00,23.7,9.0,30.37,SSW,203,4.0,8.0,53,0.00,,,0.00,Wunderground v.1.15,2013-02-02 14:29:00,
2013-02-02 09:34:00,23.8,9.1,30.37,South,190,4.0,6.0,53,0.00,,,0.00,Wunderground v.1.15,2013-02-02 14:34:00,
2013-02-02 09:39:00,23.9,8.8,30.37,South,175,3.0,8.0,52,0.00,,,0.00,Wunderground v.1.15,2013-02-02 14:39:00,
2013-02-02 09:44:00,24.0,8.5,30.37,SSW,213,5.0,7.0,51,0.00,,,0.00,Wunderground v.1.15,2013-02-02 14:44:00,
2013-02-02 09:49:00,24.1,8.6,30.37,South,169,5.0,9.0,51,0.00,,,0.00,Wunderground v.1.15,2013-02-02 14:49:00,
2013-02-02 09:54:00,24.3,8.7,30.36,South,191,3.0,6.0,51,0.00,,,0.00,Wunderground v.1.15,2013-02-02 14:54:00,
2013-02-02 09:59:00,25.0,9.4,30.36,South,172,5.0,6.0,51,0.00,,,0.00,Wunderground v.1.15,2013-02-02 14:59:00,
2013-02-02 10:04:00,25.1,9.0,30.36,SSW,196,2.0,6.0,50,0.00,,,0.00,Wunderground v.1.15,2013-02-02 15:04:00,
2013-02-02 10:09:00,25.3,8.8,30.36,SSE,164,1.0,6.0,49,0.00,,,0.00,Wunderground v.1.15,2013-02-02 15:09:00,
2013-02-02 10:14:00,25.3,9.2,30.35,SSE,162,4.0,5.0,50,0.00,,,0.00,Wunderground v.1.15,2013-02-02 15:14:00,
2013-02-02 10:19:00,25.7,10.0,30.35,SSE,155,2.0,6.0,51,0.00,,,0.00,Wunderground v.1.15,2013-02-02 15:19:00,
2013-02-02 10:24:00,25.5,9.4,30.35,SSE,155,3.0,7.0,50,0.00,,,0.00,Wunderground v.1.15,2013-02-02 15:24:00,
2013-02-02 10:29:00,25.9,9.3,30.35,SSW,193,2.0,7.0,49,0.00,,,0.00,Wunderground v.1.15,2013-02-02 15:29:00,
2013-02-02 10:34:00,26.1,8.6,30.35,SSW,212,2.0,6.0,47,0.00,,,0.00,Wunderground v.1.15,2013-02-02 15:34:00,
2013-02-02 10:39:00,26.0,8.5,30.35,South,183,2.0,9.0,47,0.00,,,0.00,Wunderground v.1.15,2013-02-02 15:39:00,
2013-02-02 10:44:00,25.9,8.4,30.34,SW,229,0.0,7.0,47,0.00,,,0.00,Wunderground v.1.15,2013-02-02 15:44:00,
2013-02-02 10:49:00,26.2,8.7,30.34,South,184,6.0,7.0,47,0.00,,,0.00,Wunderground v.1.15,2013-02-02 15:49:00,
2013-02-02 10:54:00,26.2,8.2,30.34,South,190,6.0,8.0,46,0.00,,,0.00,Wunderground v.1.15,2013-02-02 15:54:00,
2013-02-02 10:59:00,26.6,9.1,30.34,SSE,167,2.0,9.0,47,0.00,,,0.00,Wunderground v.1.15,2013-02-02 15:59:00,
2013-02-02 11:04:00,26.4,8.4,30.34,South,171,3.0,7.0,46,0.00,,,0.00,Wunderground v.1.15,2013-02-02 16:04:00,
2013-02-02 11:09:00,26.3,8.3,30.34,South,189,3.0,7.0,46,0.00,,,0.00,Wunderground v.1.15,2013-02-02 16:09:00,
2013-02-02 11:14:00,26.7,9.1,30.34,South,186,2.0,5.0,47,0.00,,,0.00,Wunderground v.1.15,2013-02-02 16:14:00,
2013-02-02 11:19:00,26.9,8.4,30.33,SSE,149,3.0,6.0,45,0.00,,,0.00,Wunderground v.1.15,2013-02-02 16:19:00,
2013-02-02 11:24:00,26.7,8.2,30.33,SSE,159,3.0,5.0,45,0.00,,,0.00,Wunderground v.1.15,2013-02-02 16:24:00,
2013-02-02 11:29:00,26.7,8.7,30.32,South,169,3.0,5.0,46,0.00,,,0.00,Wunderground v.1.15,2013-02-02 16:29:00,
2013-02-02 11:34:00,26.9,9.3,30.32,South,190,8.0,8.0,47,0.00,,,0.00,Wunderground v.1.15,2013-02-02 16:34:00,
2013-02-02 11:39:00,26.4,8.4,30.32,South,171,2.0,8.0,46,0.00,,,0.00,Wunderground v.1.15,2013-02-02 16:39:00,
2013-02-02 11:44:00,26.7,8.7,30.31,South,174,1.0,6.0,46,0.00,,,0.00,Wunderground v.1.15,2013-02-02 16:44:00,
2013-02-02 11:49:00,27.4,9.3,30.31,SE,145,2.0,6.0,46,0.00,,,0.00,Wunderground v.1.15,2013-02-02 16:49:00,
2013-02-02 11:54:00,27.4,9.8,30.31,South,171,4.0,7.0,47,0.00,,,0.00,Wunderground v.1.15,2013-02-02 16:54:00,
2013-02-02 12:00:00,27.7,10.5,30.30,SSE,150,2.0,4.0,48,0.00,,,0.00,Wunderground v.1.15,2013-02-02 17:00:00,
2013-02-02 12:05:00,27.5,9.4,30.30,South,171,2.0,5.0,46,0.00,,,0.00,Wunderground v.1.15,2013-02-02 17:05:00,
2013-02-02 12:10:00,27.4,9.8,30.30,SE,138,3.0,3.0,47,0.00,,,0.00,Wunderground v.1.15,2013-02-02 17:10:00,
2013-02-02 12:15:00,27.0,11.7,30.29,SE,141,4.0,5.0,52,0.00,,,0.00,Wunderground v.1.15,2013-02-02 17:15:00,
2013-02-02 12:20:00,26.7,12.7,30.29,SSE,167,5.0,5.0,55,0.00,,,0.00,Wunderground v.1.15,2013-02-02 17:20:00,
2013-02-02 12:25:00,26.4,13.2,30.28,SSE,163,6.0,8.0,57,0.00,,,0.00,Wunderground v.1.15,2013-02-02 17:25:00,
2013-02-02 12:30:00,26.7,13.9,30.28,SSE,167,5.0,5.0,58,0.00,,,0.00,Wunderground v.1.15,2013-02-02 17:30:00,
2013-02-02 12:35:00,26.8,13.6,30.28,South,177,3.0,7.0,57,0.00,,,0.00,Wunderground v.1.15,2013-02-02 17:35:00,
2013-02-02 12:40:00,26.7,13.9,30.27,SSE,159,3.0,4.0,58,0.00,,,0.00,Wunderground v.1.15,2013-02-02 17:40:00,
2013-02-02 12:45:00,26.7,13.9,30.27,SSE,163,4.0,6.0,58,0.00,,,0.00,Wunderground v.1.15,2013-02-02 17:45:00,
2013-02-02 12:50:00,27.0,14.2,30.27,SSE,165,3.0,3.0,58,0.00,,,0.00,Wunderground v.1.15,2013-02-02 17:50:00,
2013-02-02 12:55:00,26.9,14.9,30.26,SSE,148,1.0,6.0,60,0.00,,,0.00,Wunderground v.1.15,2013-02-02 17:55:00,
2013-02-02 13:00:00,26.5,14.9,30.26,SSE,168,1.0,3.0,61,0.00,,,0.00,Wunderground v.1.15,2013-02-02 18:00:00,
2013-02-02 13:05:00,26.7,15.8,30.25,SSE,158,5.0,5.0,63,0.00,,,0.00,Wunderground v.1.15,2013-02-02 18:05:00,
2013-02-02 13:10:00,26.8,16.6,30.25,South,174,4.0,4.0,65,0.00,,,0.00,Wunderground v.1.15,2013-02-02 18:10:00,
2013-02-02 13:15:00,26.9,16.7,30.25,South,182,6.0,7.0,65,0.00,,,0.00,Wunderground v.1.15,2013-02-02 18:15:00,
2013-02-02 13:20:00,26.4,16.9,30.24,SE,146,1.0,3.0,67,0.00,,,0.00,Wunderground v.1.15,2013-02-02 18:20:00,
2013-02-02 13:25:00,26.7,17.9,30.24,SSE,165,0.0,3.0,69,0.00,,,0.00,Wunderground v.1.15,2013-02-02 18:25:00,
2013-02-02 13:30:00,26.7,18.6,30.24,SSE,163,4.0,4.0,71,0.00,,,0.00,Wunderground v.1.15,2013-02-02 18:30:00,
2013-02-02 13:35:00,26.4,18.3,30.23,SSE,150,3.0,7.0,71,0.00,,,0.00,Wunderground v.1.15,2013-02-02 18:35:00,
2013-02-02 13:40:00,26.3,18.5,30.23,SSE,159,0.0,2.0,72,0.00,,,0.00,Wunderground v.1.15,2013-02-02 18:40:00,
2013-02-02 13:45:00,26.5,19.0,30.23,SSE,151,0.0,4.0,73,0.00,,,0.00,Wunderground v.1.15,2013-02-02 18:45:00,
2013-02-02 13:50:00,26.2,18.1,30.23,SE,146,0.0,1.0,71,0.00,,,0.00,Wunderground v.1.15,2013-02-02 18:50:00,
2013-02-02 13:55:00,26.6,18.8,30.22,SE,146,1.0,2.0,72,0.00,,,0.00,Wunderground v.1.15,2013-02-02 18:55:00,
2013-02-02 14:00:00,26.9,18.7,30.22,SE,146,1.0,2.0,71,0.00,,,0.00,Wunderground v.1.15,2013-02-02 19:00:00,
2013-02-02 14:05:00,26.8,18.0,30.22,SE,139,0.0,5.0,69,0.00,,,0.00,Wunderground v.1.15,2013-02-02 19:05:00,
2013-02-02 14:10:00,26.9,18.4,30.22,SE,139,1.0,2.0,70,0.00,,,0.00,Wunderground v.1.15,2013-02-02 19:10:00,
2013-02-02 14:15:00,27.3,18.1,30.21,SE,139,1.0,2.0,68,0.00,,,0.00,Wunderground v.1.15,2013-02-02 19:15:00,
2013-02-02 14:20:00,27.7,18.2,30.21,East,91,4.0,5.0,67,0.00,,,0.00,Wunderground v.1.15,2013-02-02 19:20:00,
2013-02-02 14:25:00,27.6,17.7,30.21,SE,143,1.0,5.0,66,0.00,,,0.00,Wunderground v.1.15,2013-02-02 19:25:00,
2013-02-02 14:30:00,27.6,17.4,30.20,SSE,153,0.0,2.0,65,0.00,,,0.00,Wunderground v.1.15,2013-02-02 19:30:00,
2013-02-02 14:35:00,27.9,17.6,30.20,SSE,168,3.0,6.0,65,0.00,,,0.00,Wunderground v.1.15,2013-02-02 19:35:00,
2013-02-02 14:40:00,28.1,16.4,30.20,South,175,1.0,3.0,61,0.00,,,0.00,Wunderground v.1.15,2013-02-02 19:40:00,
2013-02-02 14:45:00,28.3,15.8,30.20,SSE,161,3.0,4.0,59,0.00,,,0.00,Wunderground v.1.15,2013-02-02 19:45:00,
2013-02-02 14:50:00,28.3,16.2,30.20,SSE,163,2.0,2.0,60,0.00,,,0.00,Wunderground v.1.15,2013-02-02 19:50:00,
2013-02-02 14:55:00,28.5,16.0,30.20,South,172,2.0,3.0,59,0.00,,,0.00,Wunderground v.1.15,2013-02-02 19:55:00,
2013-02-02 15:00:00,28.6,15.7,30.20,SSE,168,3.0,3.0,58,0.00,,,0.00,Wunderground v.1.15,2013-02-02 20:00:00,
2013-02-02 15:06:00,28.7,15.0,30.19,SE,134,2.0,4.0,56,0.00,,,0.00,Wunderground v.1.15,2013-02-02 20:06:00,
2013-02-02 15:11:00,29.2,15.4,30.19,South,173,1.0,5.0,56,0.00,,,0.00,Wunderground v.1.15,2013-02-02 20:11:00,
2013-02-02 15:16:00,29.3,15.1,30.18,SE,145,2.0,5.0,55,0.00,,,0.00,Wunderground v.1.15,2013-02-02 20:16:00,
2013-02-02 15:21:00,29.5,15.3,30.18,SSE,167,2.0,4.0,55,0.00,,,0.00,Wunderground v.1.15,2013-02-02 20:21:00,
2013-02-02 15:26:00,29.8,15.6,30.18,SSE,158,2.0,4.0,55,0.00,,,0.00,Wunderground v.1.15,2013-02-02 20:26:00,
2013-02-02 15:31:00,29.7,14.6,30.18,SE,136,1.0,4.0,53,0.00,,,0.00,Wunderground v.1.15,2013-02-02 20:31:00,
2013-02-02 15:36:00,29.8,15.2,30.18,South,173,1.0,4.0,54,0.00,,,0.00,Wunderground v.1.15,2013-02-02 20:36:00,
2013-02-02 15:41:00,29.9,14.8,30.17,SSE,152,2.0,3.0,53,0.00,,,0.00,Wunderground v.1.15,2013-02-02 20:41:00,
2013-02-02 15:46:00,30.1,14.6,30.17,SSE,152,2.0,3.0,52,0.00,,,0.00,Wunderground v.1.15,2013-02-02 20:46:00,
2013-02-02 15:51:00,30.3,14.8,30.17,South,180,1.0,3.0,52,0.00,,,0.00,Wunderground v.1.15,2013-02-02 20:51:00,
2013-02-02 15:56:00,30.5,14.9,30.17,SSE,166,1.0,5.0,52,0.00,,,0.00,Wunderground v.1.15,2013-02-02 20:56:00,
2013-02-02 16:01:00,30.5,14.5,30.17,SSE,159,1.0,4.0,51,0.00,,,0.00,Wunderground v.1.15,2013-02-02 21:01:00,
2013-02-02 16:06:00,30.5,14.9,30.17,South,188,7.0,7.0,52,0.00,,,0.00,Wunderground v.1.15,2013-02-02 21:06:00,
2013-02-02 16:11:00,30.4,15.3,30.17,SSW,211,2.0,5.0,53,0.00,,,0.00,Wunderground v.1.15,2013-02-02 21:11:00,
2013-02-02 16:16:00,30.7,15.1,30.17,South,188,4.0,10.0,52,0.00,,,0.00,Wunderground v.1.15,2013-02-02 21:16:00,
2013-02-02 16:21:00,31.0,15.4,30.17,SSW,212,6.0,8.0,52,0.00,,,0.00,Wunderground v.1.15,2013-02-02 21:21:00,
2013-02-02 16:26:00,30.8,14.3,30.16,South,175,2.0,8.0,50,0.00,,,0.00,Wunderground v.1.15,2013-02-02 21:26:00,
2013-02-02 16:31:00,30.9,14.4,30.15,SSE,149,1.0,3.0,50,0.00,,,0.00,Wunderground v.1.15,2013-02-02 21:31:00,
2013-02-02 16:36:00,30.8,13.9,30.14,SSE,156,3.0,8.0,49,0.00,,,0.00,Wunderground v.1.15,2013-02-02 21:36:00,
2013-02-02 16:41:00,30.8,13.9,30.14,SSE,150,3.0,6.0,49,0.00,,,0.00,Wunderground v.1.15,2013-02-02 21:41:00,
2013-02-02 16:46:00,30.8,14.8,30.13,SSE,153,3.0,7.0,51,0.00,,,0.00,Wunderground v.1.15,2013-02-02 21:46:00,
2013-02-02 16:51:00,30.6,17.6,30.14,SE,143,4.0,6.0,58,0.00,,,0.00,Wunderground v.1.15,2013-02-02 21:51:00,
2013-02-02 16:56:00,30.1,18.6,30.14,SSE,157,4.0,8.0,62,0.00,,,0.00,Wunderground v.1.15,2013-02-02 21:56:00,
2013-02-02 17:01:00,29.7,19.7,30.14,SSE,162,3.0,5.0,66,0.00,,,0.00,Wunderground v.1.15,2013-02-02 22:01:00,
2013-02-02 17:06:00,29.1,20.9,30.13,SSE,153,3.0,9.0,71,0.00,,,0.00,Wunderground v.1.15,2013-02-02 22:06:00,
2013-02-02 17:11:00,28.5,21.6,30.13,South,169,5.0,7.0,75,0.00,,,0.00,Wunderground v.1.15,2013-02-02 22:11:00,
2013-02-02 17:16:00,27.9,21.9,30.13,SSE,150,3.0,8.0,78,0.00,,,0.00,Wunderground v.1.15,2013-02-02 22:16:00,
2013-02-02 17:21:00,27.5,22.4,30.14,SSE,150,2.0,5.0,81,0.00,,,0.00,Wunderground v.1.15,2013-02-02 22:21:00,
2013-02-02 17:26:00,27.3,22.8,30.13,SE,139,4.0,7.0,83,0.00,,,0.00,Wunderground v.1.15,2013-02-02 22:26:00,
2013-02-02 17:31:00,27.1,22.9,30.13,SSE,159,2.0,3.0,84,0.00,,,0.00,Wunderground v.1.15,2013-02-02 22:31:00,
2013-02-02 17:36:00,27.0,23.1,30.13,SSE,155,2.0,5.0,85,0.00,,,0.00,Wunderground v.1.15,2013-02-02 22:36:00,
2013-02-02 17:41:00,26.9,23.3,30.13,SSE,148,2.0,3.0,86,0.00,,,0.00,Wunderground v.1.15,2013-02-02 22:41:00,
2013-02-02 17:46:00,26.8,23.4,30.13,SSE,163,4.0,4.0,87,0.00,,,0.00,Wunderground v.1.15,2013-02-02 22:46:00,
2013-02-02 17:51:00,26.7,23.6,30.13,SE,146,3.0,6.0,88,0.00,,,0.00,Wunderground v.1.15,2013-02-02 22:51:00,
2013-02-02 17:56:00,26.7,23.6,30.13,SSE,155,0.0,6.0,88,0.00,,,0.00,Wunderground v.1.15,2013-02-02 22:56:00,
2013-02-02 18:01:00,26.7,23.6,30.13,SSE,155,1.0,2.0,88,0.00,,,0.00,Wunderground v.1.15,2013-02-02 23:01:00,
2013-02-02 18:06:00,26.7,23.9,30.13,SSE,162,3.0,4.0,89,0.00,,,0.00,Wunderground v.1.15,2013-02-02 23:06:00,
2013-02-02 18:11:00,26.7,23.9,30.13,SSE,162,1.0,3.0,89,0.00,,,0.00,Wunderground v.1.15,2013-02-02 23:11:00,
2013-02-02 18:16:00,26.8,24.0,30.13,SSE,162,1.0,3.0,89,0.00,,,0.00,Wunderground v.1.15,2013-02-02 23:16:00,
2013-02-02 18:22:00,26.8,24.0,30.13,SE,146,2.0,3.0,89,0.00,,,0.00,Wunderground v.1.15,2013-02-02 23:22:00,
2013-02-02 18:27:00,26.8,24.3,30.13,SE,146,1.0,3.0,90,0.00,,,0.00,Wunderground v.1.15,2013-02-02 23:27:00,
2013-02-02 18:32:00,26.9,24.4,30.12,SE,146,3.0,3.0,90,0.00,,,0.00,Wunderground v.1.15,2013-02-02 23:32:00,
2013-02-02 18:37:00,26.9,24.4,30.12,SSE,164,2.0,4.0,90,0.00,,,0.00,Wunderground v.1.15,2013-02-02 23:37:00,
2013-02-02 18:42:00,26.9,24.4,30.13,SSE,165,3.0,4.0,90,0.00,,,0.00,Wunderground v.1.15,2013-02-02 23:42:00,
2013-02-02 18:47:00,26.9,24.4,30.13,SSE,157,2.0,4.0,90,0.00,,,0.00,Wunderground v.1.15,2013-02-02 23:47:00,
2013-02-02 18:52:00,27.0,24.5,30.12,SSE,161,3.0,5.0,90,0.00,,,0.00,Wunderground v.1.15,2013-02-02 23:52:00,
2013-02-02 18:57:00,27.0,24.7,30.12,SSE,161,2.0,5.0,91,0.00,,,0.00,Wunderground v.1.15,2013-02-02 23:57:00,
2013-02-02 19:02:00,27.1,24.8,30.12,SSE,156,4.0,5.0,91,0.00,,,0.00,Wunderground v.1.15,2013-02-03 00:02:00,
2013-02-02 19:07:00,27.1,24.8,30.12,SSE,163,2.0,5.0,91,0.00,,,0.00,Wunderground v.1.15,2013-02-03 00:07:00,
2013-02-02 19:12:00,27.2,24.9,30.12,SSE,159,5.0,6.0,91,0.00,,,0.00,Wunderground v.1.15,2013-02-03 00:12:00,
2013-02-02 19:17:00,27.3,25.0,30.12,SSE,160,3.0,6.0,91,0.00,,,0.00,Wunderground v.1.15,2013-02-03 00:17:00,
2013-02-02 19:22:00,27.3,25.0,30.12,SSE,156,4.0,6.0,91,0.00,,,0.00,Wunderground v.1.15,2013-02-03 00:22:00,
2013-02-02 19:27:00,27.4,25.1,30.12,SSE,163,2.0,6.0,91,0.00,,,0.00,Wunderground v.1.15,2013-02-03 00:27:00,
2013-02-02 19:32:00,27.4,25.1,30.12,SSE,168,3.0,4.0,91,0.00,,,0.00,Wunderground v.1.15,2013-02-03 00:32:00,
2013-02-02 19:37:00,27.5,25.2,30.12,SSE,163,2.0,5.0,91,0.00,,,0.00,Wunderground v.1.15,2013-02-03 00:37:00,
2013-02-02 19:42:00,27.6,25.3,30.12,SSE,163,2.0,4.0,91,0.00,,,0.00,Wunderground v.1.15,2013-02-03 00:42:00,
2013-02-02 19:47:00,27.6,25.3,30.12,SSE,165,1.0,4.0,91,0.00,,,0.00,Wunderground v.1.15,2013-02-03 00:47:00,
2013-02-02 19:52:00,27.6,25.3,30.12,SSE,155,2.0,5.0,91,0.00,,,0.00,Wunderground v.1.15,2013-02-03 00:52:00,
2013-02-02 19:57:00,27.6,25.3,30.11,SSE,162,3.0,5.0,91,0.00,,,0.00,Wunderground v.1.15,2013-02-03 00:57:00,
2013-02-02 20:02:00,27.6,25.3,30.11,SSE,153,2.0,5.0,91,0.00,,,0.00,Wunderground v.1.15,2013-02-03 01:02:00,
2013-02-02 20:07:00,27.6,25.3,30.11,SSE,154,2.0,6.0,91,0.00,,,0.00,Wunderground v.1.15,2013-02-03 01:07:00,
2013-02-02 20:12:00,27.7,25.4,30.11,SSE,166,3.0,4.0,91,0.00,,,0.00,Wunderground v.1.15,2013-02-03 01:12:00,
2013-02-02 20:17:00,27.7,25.4,30.10,SSE,159,2.0,7.0,91,0.00,,,0.00,Wunderground v.1.15,2013-02-03 01:17:00,
2013-02-02 20:22:00,27.8,25.5,30.10,SSE,153,2.0,4.0,91,0.00,,,0.00,Wunderground v.1.15,2013-02-03 01:22:00,
2013-02-02 20:27:00,27.8,25.5,30.10,SSE,150,4.0,5.0,91,0.00,,,0.00,Wunderground v.1.15,2013-02-03 01:27:00,
2013-02-02 20:32:00,27.9,25.6,30.10,SSE,148,3.0,5.0,91,0.00,,,0.00,Wunderground v.1.15,2013-02-03 01:32:00,
2013-02-02 20:37:00,27.9,25.6,30.09,SSE,164,2.0,6.0,91,0.00,,,0.00,Wunderground v.1.15,2013-02-03 01:37:00,
2013-02-02 20:42:00,28.0,25.7,30.09,SSE,147,3.0,3.0,91,0.00,,,0.00,Wunderground v.1.15,2013-02-03 01:42:00,
2013-02-02 20:47:00,28.0,25.7,30.08,SSE,159,3.0,4.0,91,0.00,,,0.00,Wunderground v.1.15,2013-02-03 01:47:00,
2013-02-02 20:52:00,28.1,25.8,30.08,SSE,147,3.0,3.0,91,0.00,,,0.00,Wunderground v.1.15,2013-02-03 01:52:00,
2013-02-02 20:57:00,28.2,26.2,30.08,SSE,158,3.0,3.0,92,0.00,,,0.00,Wunderground v.1.15,2013-02-03 01:57:00,
2013-02-02 21:02:00,28.2,26.2,30.08,SSE,159,3.0,3.0,92,0.00,,,0.00,Wunderground v.1.15,2013-02-03 02:02:00,
2013-02-02 21:07:00,28.3,26.3,30.08,SSE,157,2.0,4.0,92,0.00,,,0.00,Wunderground v.1.15,2013-02-03 02:07:00,
2013-02-02 21:12:00,28.3,26.3,30.08,SE,143,1.0,5.0,92,0.00,,,0.00,Wunderground v.1.15,2013-02-03 02:12:00,
2013-02-02 21:17:00,28.4,26.4,30.08,SSE,160,2.0,5.0,92,0.00,,,0.00,Wunderground v.1.15,2013-02-03 02:17:00,
2013-02-02 21:22:00,28.4,26.4,30.07,SSE,160,2.0,5.0,92,0.00,,,0.00,Wunderground v.1.15,2013-02-03 02:22:00,
2013-02-02 21:27:00,28.4,26.4,30.07,SSE,153,4.0,6.0,92,0.00,,,0.00,Wunderground v.1.15,2013-02-03 02:27:00,
2013-02-02 21:32:00,28.4,26.4,30.07,SSE,168,5.0,5.0,92,0.00,,,0.00,Wunderground v.1.15,2013-02-03 02:32:00,
2013-02-02 21:38:00,28.5,26.5,30.07,South,177,4.0,5.0,92,0.00,,,0.00,Wunderground v.1.15,2013-02-03 02:38:00,
2013-02-02 21:43:00,28.5,26.5,30.07,SE,146,2.0,5.0,92,0.00,,,0.00,Wunderground v.1.15,2013-02-03 02:43:00,
2013-02-02 21:48:00,28.5,26.5,30.07,SSE,167,1.0,5.0,92,0.00,,,0.00,Wunderground v.1.15,2013-02-03 02:48:00,
2013-02-02 21:53:00,28.6,26.6,30.07,SSE,164,4.0,4.0,92,0.00,,,0.00,Wunderground v.1.15,2013-02-03 02:53:00,
2013-02-02 21:58:00,28.6,26.6,30.07,SSE,159,3.0,6.0,92,0.00,,,0.00,Wunderground v.1.15,2013-02-03 02:58:00,
2013-02-02 22:03:00,28.6,26.6,30.06,South,180,2.0,3.0,92,0.00,,,0.00,Wunderground v.1.15,2013-02-03 03:03:00,
2013-02-02 22:08:00,28.6,26.6,30.06,SSE,167,3.0,5.0,92,0.00,,,0.00,Wunderground v.1.15,2013-02-03 03:08:00,
2013-02-02 22:13:00,28.6,26.6,30.06,South,175,1.0,4.0,92,0.00,,,0.00,Wunderground v.1.15,2013-02-03 03:13:00,
2013-02-02 22:18:00,28.5,26.5,30.06,South,177,2.0,5.0,92,0.00,,,0.00,Wunderground v.1.15,2013-02-03 03:18:00,
2013-02-02 22:23:00,28.4,26.1,30.06,South,177,2.0,2.0,91,0.00,,,0.00,Wunderground v.1.15,2013-02-03 03:23:00,
2013-02-02 22:28:00,28.2,26.2,30.06,South,177,2.0,2.0,92,0.00,,,0.00,Wunderground v.1.15,2013-02-03 03:28:00,
2013-02-02 22:33:00,28.1,26.1,30.06,South,177,1.0,2.0,92,0.00,,,0.00,Wunderground v.1.15,2013-02-03 03:33:00,
2013-02-02 22:38:00,28.2,26.2,30.06,South,177,1.0,2.0,92,0.00,,,0.00,Wunderground v.1.15,2013-02-03 03:38:00,
2013-02-02 22:43:00,28.2,26.2,30.06,South,177,2.0,2.0,92,0.00,,,0.00,Wunderground v.1.15,2013-02-03 03:43:00,
2013-02-02 22:48:00,28.3,26.3,30.06,South,177,2.0,2.0,92,0.00,,,0.00,Wunderground v.1.15,2013-02-03 03:48:00,
2013-02-02 22:53:00,28.3,26.3,30.06,South,172,2.0,2.0,92,0.00,,,0.00,Wunderground v.1.15,2013-02-03 03:53:00,
2013-02-02 22:58:00,28.3,26.3,30.06,South,172,1.0,3.0,92,0.00,,,0.00,Wunderground v.1.15,2013-02-03 03:58:00,
2013-02-02 23:03:00,28.4,26.4,30.06,South,172,0.0,3.0,92,0.00,,,0.00,Wunderground v.1.15,2013-02-03 04:03:00,
2013-02-02 23:08:00,28.5,26.5,30.06,South,172,2.0,3.0,92,0.00,,,0.00,Wunderground v.1.15,2013-02-03 04:08:00,
2013-02-02 23:13:00,28.5,26.5,30.06,South,172,2.0,2.0,92,0.00,,,0.00,Wunderground v.1.15,2013-02-03 04:13:00,
2013-02-02 23:18:00,28.5,26.5,30.06,South,172,1.0,2.0,92,0.00,,,0.00,Wunderground v.1.15,2013-02-03 04:18:00,
2013-02-02 23:23:00,28.6,26.6,30.06,South,172,0.0,1.0,92,0.00,,,0.00,Wunderground v.1.15,2013-02-03 04:23:00,
2013-02-02 23:28:00,28.6,26.6,30.06,South,172,1.0,3.0,92,0.00,,,0.00,Wunderground v.1.15,2013-02-03 04:28:00,
2013-02-02 23:33:00,28.7,26.7,30.06,South,172,2.0,3.0,92,0.00,,,0.00,Wunderground v.1.15,2013-02-03 04:33:00,
2013-02-02 23:38:00,28.6,26.6,30.06,South,172,2.0,3.0,92,0.00,,,0.00,Wunderground v.1.15,2013-02-03 04:38:00,
2013-02-02 23:43:00,28.6,26.6,30.06,South,172,1.0,2.0,92,0.00,,,0.00,Wunderground v.1.15,2013-02-03 04:43:00,
2013-02-02 23:48:00,28.6,26.6,30.06,South,172,1.0,2.0,92,0.00,,,0.00,Wunderground v.1.15,2013-02-03 04:48:00,
2013-02-02 23:53:00,28.6,26.6,30.05,South,176,0.0,3.0,92,0.00,,,0.00,Wunderground v.1.15,2013-02-03 04:53:00,
2013-02-02 23:58:00,28.6,26.6,30.05,South,176,1.0,3.0,92,0.00,,,0.00,Wunderground v.1.15,2013-02-03 04:58:00,